Date String (YYYY-MM-DD hh:mm:ss) UTC,Instrument flags,absolute air pressure of the measurement (hPa),sample flow rate (lpm),inlet stack bypass flow (lpm),air temperature of the measurement (°C),ambient temperature measured by the external sensor (°C),aerosol sample conditioner tube jacket temperature (°C),OPC LED temperature (°C),internal box temperature (°C),relative humidity of the measurement (%),span deviation,mass concentration of particles derived from Lorenz-Mie calculation of OPC scattering (μg/m³),mass concentration of particles derived from Lorenz-Mie calculation of OPC scattering (μg/m³),mass concentration of particles derived from Lorenz-Mie calculation of OPC scattering (μg/m³)
DateTimeUTC,F1_M11,P_M11,Q1_M11,Q2_M11,T1_M11,T2_M11,T3_M11,T4_M11,T5_M11,U1_M11,ZSPAN_M11,X0_M11,X2_M11,X1_M11
2023-10-01 16:00:00,SystemResetWarning,0827.3,4.99,000.00,028.5,026.8,000.0,037.0,030.2,23.6,0000.0,0008.79,0003.36,0002.42
2023-10-01 16:01:00,SystemResetWarning,0827.3,4.99,000.00,028.5,027.0,000.0,037.0,030.2,23.6,0000.0,0008.88,0003.33,0002.41
2023-10-01 16:02:00,SystemResetWarning,0827.2,5.00,000.00,028.5,027.1,000.0,037.0,030.3,23.9,0000.0,0009.29,0003.28,0002.41
2023-10-01 16:03:00,SystemResetWarning,0827.2,5.00,000.00,028.6,027.2,000.0,037.0,030.3,23.7,0000.0,0009.22,0003.25,0002.40
2023-10-01 16:04:00,SystemResetWarning,0827.2,5.00,000.00,028.6,027.3,000.0,037.0,030.4,23.9,0000.0,0009.28,0003.25,0002.42
2023-10-01 16:05:00,SystemResetWarning,0827.3,5.01,000.00,028.6,027.4,000.0,037.0,030.4,24.1,0000.0,0009.53,0003.29,0002.43
2023-10-01 16:06:00,SystemResetWarning,0827.3,5.01,000.00,028.6,027.5,000.0,037.1,030.5,23.9,0000.0,0008.81,0003.32,0002.44
2023-10-01 16:07:00,SystemResetWarning,0827.3,5.00,000.00,028.7,027.6,000.0,037.1,030.5,23.4,0000.0,0007.85,0003.29,0002.44
2023-10-01 16:08:00,SystemResetWarning,0827.4,5.00,000.00,028.7,027.6,000.0,037.1,030.5,23.1,0000.0,0008.04,0003.27,0002.46
2023-10-01 16:09:00,SystemResetWarning,0827.3,5.00,000.00,028.8,027.5,000.0,037.1,030.6,23.2,0000.0,0008.05,0003.26,0002.49
2023-10-01 16:10:00,SystemResetWarning,0827.3,4.99,000.00,028.7,026.1,000.0,037.1,030.5,23.4,0000.0,0008.22,0003.29,0002.52
2023-10-01 16:11:00,SystemResetWarning,0827.2,5.00,000.00,028.7,024.6,000.0,037.0,030.3,23.4,0000.0,0008.33,0003.27,0002.53
2023-10-01 16:12:00,SystemResetWarning,0827.2,5.01,000.00,028.6,024.6,000.0,036.9,030.1,23.6,0000.0,0008.22,0003.31,0002.54
2023-10-01 16:13:00,SystemResetWarning,0827.2,5.01,000.00,028.5,024.9,000.0,037.0,030.0,24.0,0000.0,0007.81,0003.35,0002.56
2023-10-01 16:14:00,SystemResetWarning,0827.1,4.99,000.00,028.4,025.3,000.0,037.0,029.9,23.5,0000.0,0008.47,0003.36,0002.58
2023-10-01 16:15:00,SystemResetWarning,0827.1,5.00,000.00,028.4,025.6,000.0,037.0,030.0,23.3,0000.0,0008.25,0003.36,0002.58
2023-10-01 16:16:00,SystemResetWarning,0827.1,5.01,000.00,028.4,026.0,000.0,037.0,030.0,23.1,0000.0,0008.22,0003.35,0002.60
2023-10-01 16:17:00,SystemResetWarning,0827.1,5.01,000.00,028.4,026.3,000.0,036.9,030.1,23.3,0000.0,0008.31,0003.35,0002.63
2023-10-01 16:18:00,SystemResetWarning,0827.1,5.00,000.00,028.4,026.5,000.0,036.9,030.1,23.4,0000.0,0008.43,0003.40,0002.65
2023-10-01 16:19:00,SystemResetWarning,0827.0,4.99,000.00,028.4,026.7,000.0,037.0,030.2,23.5,0000.0,0008.40,0003.43,0002.66
2023-10-01 16:20:00,SystemResetWarning,0827.0,4.99,000.00,028.4,026.9,000.0,037.0,030.2,23.2,0000.0,0008.54,0003.45,0002.67
2023-10-01 16:21:00,SystemResetWarning,0827.1,5.00,000.00,028.5,027.1,000.0,037.0,030.3,23.4,0000.0,0008.22,0003.44,0002.65
2023-10-01 16:22:00,SystemResetWarning,0827.0,5.00,000.00,028.5,027.2,000.0,037.0,030.3,23.3,0000.0,0008.05,0003.45,0002.66
2023-10-01 16:23:00,SystemResetWarning,0827.0,5.00,000.00,028.5,027.3,000.0,037.0,030.3,22.9,0000.0,0007.95,0003.43,0002.68
2023-10-01 16:24:00,SystemResetWarning,0827.0,5.00,000.00,028.6,027.4,000.0,037.0,030.4,23.0,0000.0,0008.03,0003.44,0002.68
2023-10-01 16:25:00,SystemResetWarning,0827.0,5.01,000.00,028.6,027.5,000.0,037.0,030.4,23.7,0000.0,0007.68,0003.45,0002.70
2023-10-01 16:26:00,SystemResetWarning,0827.0,5.00,000.00,028.7,027.6,000.0,037.0,030.5,23.8,0000.0,0007.80,0003.46,0002.70
2023-10-01 16:27:00,SystemResetWarning,0827.0,5.00,000.00,028.7,027.6,000.0,037.1,030.5,22.8,0000.0,0008.00,0003.46,0002.71
2023-10-01 16:28:00,SystemResetWarning,0827.0,4.99,000.00,028.7,027.2,000.0,037.1,030.5,23.0,0000.0,0008.23,0003.45,0002.72
2023-10-01 16:29:00,SystemResetWarning,0827.0,5.00,000.00,028.7,025.4,000.0,037.0,030.4,23.2,0000.0,0008.32,0003.44,0002.73
2023-10-01 16:30:00,SystemResetWarning,0827.0,5.02,000.00,028.6,024.4,000.0,036.9,030.2,23.2,0000.0,0008.25,0003.42,0002.74
2023-10-01 16:31:00,SystemResetWarning,0827.0,5.01,000.00,028.5,024.6,000.0,036.9,030.1,23.0,0000.0,0008.29,0003.41,0002.74
2023-10-01 16:32:00,SystemResetWarning,0827.0,4.98,000.00,028.4,024.9,000.0,036.9,029.9,23.2,0000.0,0008.47,0003.46,0002.77
2023-10-01 16:33:00,SystemResetWarning,0826.9,5.00,000.00,028.4,025.3,000.0,036.9,029.9,23.0,0000.0,0008.31,0003.48,0002.79
2023-10-01 16:34:00,SystemResetWarning,0826.9,5.01,000.00,028.4,025.7,000.0,036.9,030.0,23.0,0000.0,0008.31,0003.48,0002.79
2023-10-01 16:35:00,SystemResetWarning,0827.0,5.00,000.00,028.4,026.0,000.0,036.9,030.0,22.7,0000.0,0008.61,0003.47,0002.80
2023-10-01 16:36:00,SystemResetWarning,0827.0,5.00,000.00,028.4,026.3,000.0,036.9,030.1,22.6,0000.0,0008.29,0003.45,0002.79
2023-10-01 16:37:00,SystemResetWarning,0827.0,4.99,000.00,028.4,026.6,000.0,036.9,030.1,22.6,0000.0,0008.08,0003.47,0002.80
2023-10-01 16:38:00,SystemResetWarning,0826.9,5.01,000.00,028.4,026.8,000.0,036.9,030.2,22.3,0000.0,0007.72,0003.50,0002.82
2023-10-01 16:39:00,SystemResetWarning,0826.9,5.00,000.00,028.4,027.0,000.0,036.9,030.2,22.6,0000.0,0007.70,0003.53,0002.81
2023-10-01 16:40:00,SystemResetWarning,0826.9,4.99,000.00,028.5,027.1,000.0,036.9,030.3,22.4,0000.0,0007.51,0003.53,0002.83
2023-10-01 16:41:00,SystemResetWarning,0827.0,5.00,000.00,028.5,027.3,000.0,036.9,030.3,22.5,0000.0,0007.80,0003.53,0002.83
2023-10-01 16:42:00,SystemResetWarning,0827.0,5.01,000.00,028.5,027.4,000.0,037.0,030.3,22.8,0000.0,0007.84,0003.54,0002.85
2023-10-01 16:43:00,SystemResetWarning,0826.9,5.00,000.00,028.6,027.5,000.0,037.0,030.4,22.7,0000.0,0007.78,0003.52,0002.86
2023-10-01 16:44:00,SystemResetWarning,0827.0,5.00,000.00,028.6,027.5,000.0,037.0,030.4,22.5,0000.0,0007.74,0003.50,0002.86
2023-10-01 16:45:00,SystemResetWarning,0827.0,5.00,000.00,028.6,027.6,000.0,037.0,030.5,22.3,0000.0,0007.86,0003.53,0002.88
2023-10-01 16:46:00,SystemResetWarning,0827.0,4.98,000.00,028.7,026.5,000.0,037.0,030.4,22.3,0000.0,0007.73,0003.56,0002.90
2023-10-01 16:47:00,SystemResetWarning,0827.0,5.01,000.00,028.6,024.8,000.0,036.9,030.2,22.5,0000.0,0008.24,0003.63,0002.93
2023-10-01 16:48:00,SystemResetWarning,0827.0,5.02,000.00,028.5,024.4,000.0,036.9,030.1,22.5,0000.0,0008.29,0003.64,0002.95
2023-10-01 16:49:00,SystemResetWarning,0827.0,4.99,000.00,028.4,024.7,000.0,036.9,029.9,22.9,0000.0,0008.90,0003.61,0002.96
2023-10-01 16:50:00,SystemResetWarning,0827.0,5.00,000.00,028.4,025.1,000.0,036.9,029.9,22.9,0000.0,0009.01,0003.63,0002.97
2023-10-01 16:51:00,SystemResetWarning,0827.0,5.01,000.00,028.3,025.5,000.0,036.9,029.9,22.8,0000.0,0009.40,0003.65,0002.99
2023-10-01 16:52:00,SystemResetWarning,0826.9,5.00,000.00,028.3,025.8,000.0,036.9,030.0,22.7,0000.0,0009.46,0003.66,0003.02
2023-10-01 16:53:00,SystemResetWarning,0826.9,4.99,000.00,028.3,026.2,000.0,036.9,030.0,22.7,0000.0,0009.51,0003.67,0003.04
2023-10-01 16:54:00,SystemResetWarning,0826.9,4.99,000.00,028.3,026.4,000.0,036.9,030.1,23.1,0000.0,0009.39,0003.65,0003.04
2023-10-01 16:55:00,SystemResetWarning,0826.9,5.00,000.00,028.4,026.7,000.0,036.9,030.1,23.9,0000.0,0009.72,0003.68,0003.08
2023-10-01 16:56:00,SystemResetWarning,0827.0,4.99,000.00,028.4,026.9,000.0,036.9,030.2,23.2,0000.0,0009.97,0003.66,0003.10
2023-10-01 16:57:00,SystemResetWarning,0826.9,5.00,000.00,028.4,027.1,000.0,036.9,030.2,22.2,0000.0,0009.84,0003.64,0003.11
2023-10-01 16:58:00,SystemResetWarning,0826.9,5.01,000.00,028.5,027.2,000.0,036.9,030.3,22.3,0000.0,0009.29,0003.62,0003.12
2023-10-01 16:59:00,SystemResetWarning,0826.9,5.01,000.00,028.5,027.3,000.0,036.9,030.3,22.4,0000.0,0009.23,0003.62,0003.13
